• In Moldova, Republic
  • List of Countries
  • For 7 days
  • Water Temperature
  • Satellite Maps
  • Weather Map
  • Weather Widgets
  • user-avatar
    Login

    Hourly Weather Quito

    Today, 26 May, Saturday

    Time Temperature Precipitation Wind Pressure Humidity
    00:00 +14°C° 0 mm 2 mps 622 mmHg 69%
    01:00 +16°C° 0 mm 2 mps 622 mmHg 65%
    02:00 +15°C° 0 mm 2 mps 622 mmHg 68%
    03:00 +14°C° 0 mm 1 mps 622 mmHg 71%
    04:00 +14°C° 0 mm 1 mps 621 mmHg 74%
    05:00 +14°C° 0 mm 1 mps 622 mmHg 74%
    06:00 +14°C° 0 mm 1 mps 622 mmHg 75%
    07:00 +14°C° 0 mm 1 mps 622 mmHg 75%
    08:00 +17°C° 0 mm 2 mps 623 mmHg 64%
    09:00 +19°C° 0 mm 2 mps 624 mmHg 53%
    10:00 +22°C° 0 mm 3 mps 625 mmHg 43%
    11:00 +22°C° 0 mm 3 mps 625 mmHg 43%
    12:00 +23°C° 0 mm 2 mps 625 mmHg 43%
    13:00 +23°C° 0 mm 2 mps 624 mmHg 43%
    14:00 +23°C° 0 mm 2 mps 624 mmHg 45%
    15:00 +23°C° 0 mm 2 mps 624 mmHg 46%
    16:00 +21°C° 0 mm 2 mps 623 mmHg 47%
    17:00 +20°C° 0 mm 2 mps 623 mmHg 51%
    18:00 +20°C° 0 mm 1 mps 623 mmHg 55%
    19:00 +18°C° 0 mm 1 mps 623 mmHg 58%
    20:00 +18°C° 0 mm 1 mps 623 mmHg 59%
    21:00 +16°C° 0 mm 1 mps 624 mmHg 60%
    22:00 +16°C° 0 mm 1 mps 624 mmHg 60%
    23:00 +16°C° 0 mm 1 mps 624 mmHg 61%

    Tomorrow, 27 May, Sunday

    Time Temperature Precipitation Wind Pressure Humidity
    00:00 +16°C° 0 mm 1 mps 624 mmHg 61%
    01:00 +15°C° 0 mm 1 mps 624 mmHg 62%
    02:00 +15°C° 0 mm 1 mps 623 mmHg 66%
    03:00 +14°C° 0 mm 1 mps 623 mmHg 69%
    04:00 +13°C° 0 mm 1 mps 623 mmHg 73%
    05:00 +14°C° 0 mm 1 mps 623 mmHg 73%
    06:00 +14°C° 0 mm 1 mps 624 mmHg 73%
    07:00 +14°C° 0 mm 1 mps 624 mmHg 73%
    08:00 +17°C° 0 mm 2 mps 625 mmHg 64%
    09:00 +19°C° 0 mm 2 mps 626 mmHg 54%
    10:00 +22°C° 0 mm 3 mps 627 mmHg 44%
    11:00 +24°C° 0 mm 3 mps 626 mmHg 41%
    12:00 +25°C° 0 mm 3 mps 626 mmHg 38%
    13:00 +25°C° 0 mm 2 mps 626 mmHg 35%
    14:00 +25°C° 0 mm 2 mps 625 mmHg 36%
    15:00 +24°C° 0 mm 2 mps 625 mmHg 38%
    16:00 +24°C° 0 mm 2 mps 625 mmHg 40%
    17:00 +21°C° 0 mm 2 mps 625 mmHg 45%
    18:00 +19°C° 0 mm 2 mps 624 mmHg 50%
    19:00 +18°C° 0 mm 1 mps 624 mmHg 55%
    20:00 +16°C° 0 mm 1 mps 624 mmHg 57%
    21:00 +15°C° 0 mm 1 mps 625 mmHg 59%
    22:00 +15°C° 0 mm 1 mps 625 mmHg 61%
    23:00 +14°C° 0 mm 1 mps 624 mmHg 63%

    Day after tomorrow, 28 May, Monday

    Time Temperature Precipitation Wind Pressure Humidity
    00:00 +13°C° 0 mm 1 mps 624 mmHg 65%
    01:00 +13°C° 0 mm 1 mps 624 mmHg 67%
    02:00 +13°C° 0 mm 1 mps 624 mmHg 68%
    03:00 +12°C° 0 mm 1 mps 623 mmHg 69%
    04:00 +12°C° 0 mm 1 mps 623 mmHg 70%
    05:00 +12°C° 0 mm 1 mps 624 mmHg 69%
    06:00 +13°C° 0 mm 1 mps 624 mmHg 69%
    07:00 +13°C° 0 mm 1 mps 625 mmHg 69%
    08:00 +16°C° 0 mm 2 mps 626 mmHg 60%
    09:00 +19°C° 0 mm 2 mps 627 mmHg 52%
    10:00 +22°C° 0 mm 3 mps 628 mmHg 43%
    11:00 +24°C° 0 mm 3 mps 627 mmHg 40%
    12:00 +25°C° 0 mm 2 mps 627 mmHg 37%
    13:00 +26°C° 0 mm 2 mps 627 mmHg 34%
    14:00 +26°C° 0 mm 2 mps 626 mmHg 35%
    15:00 +26°C° 0 mm 1 mps 625 mmHg 35%
    16:00 +25°C° 0 mm 1 mps 625 mmHg 36%
    17:00 +23°C° 0 mm 1 mps 624 mmHg 42%
    18:00 +20°C° 0 mm 1 mps 624 mmHg 47%
    19:00 +18°C° 0 mm 1 mps 624 mmHg 52%
    20:00 +18°C° 0 mm 1 mps 624 mmHg 53%
    21:00 +16°C° 0 mm 1 mps 624 mmHg 54%
    22:00 +16°C° 0 mm 1 mps 625 mmHg 55%
    23:00 +15°C° 0 mm 1 mps 624 mmHg 57%

    29 May, Tuesday

    Time Temperature Precipitation Wind Pressure Humidity
    00:00 +15°C° 0 mm 1 mps 624 mmHg 59%
    01:00 +14°C° 0 mm 1 mps 624 mmHg 60%
    02:00 +13°C° 0 mm 1 mps 623 mmHg 63%
    03:00 +13°C° 0 mm 1 mps 623 mmHg 66%
    04:00 +13°C° 0 mm 1 mps 623 mmHg 68%
    05:00 +13°C° 0 mm 1 mps 623 mmHg 69%
    06:00 +13°C° 0 mm 1 mps 624 mmHg 70%
    07:00 +14°C° 0 mm 1 mps 624 mmHg 71%
    08:00 +18°C° 0 mm 1 mps 625 mmHg 62%
    09:00 +20°C° 0 mm 2 mps 626 mmHg 52%
    10:00 +24°C° 0 mm 2 mps 627 mmHg 42%
    11:00 +25°C° 0 mm 2 mps 627 mmHg 38%
    12:00 +27°C° 0 mm 1 mps 627 mmHg 34%
    13:00 +28°C° 0 mm 1 mps 626 mmHg 30%
    14:00 +28°C° 0 mm 1 mps 626 mmHg 31%
    15:00 +27°C° 0 mm 1 mps 625 mmHg 32%
    16:00 +26°C° 0 mm 1 mps 624 mmHg 33%
    17:00 +23°C° 0 mm 1 mps 624 mmHg 38%
    18:00 +21°C° 0 mm 1 mps 624 mmHg 43%
    19:00 +19°C° 0 mm 1 mps 623 mmHg 48%
    20:00 +18°C° 0 mm 1 mps 623 mmHg 49%
    21:00 +18°C° 0 mm 1 mps 623 mmHg 50%
    22:00 +16°C° 0 mm 1 mps 623 mmHg 51%
    23:00 +15°C° 0 mm 1 mps 623 mmHg 52%

    30 May, Wednesday

    Time Temperature Precipitation Wind Pressure Humidity
    00:00 +15°C° 0 mm 1 mps 623 mmHg 54%
    01:00 +14°C° 0 mm 1 mps 622 mmHg 56%
    02:00 +14°C° 0 mm 1 mps 622 mmHg 58%
    03:00 +13°C° 0 mm 1 mps 622 mmHg 60%
    04:00 +13°C° 0 mm 1 mps 622 mmHg 62%
    05:00 +12°C° 0 mm 0 mps 622 mmHg 63%
    06:00 +12°C° 0 mm 0 mps 623 mmHg 64%
    07:00 +13°C° 0 mm 0 mps 624 mmHg 65%
    08:00 +18°C° 0 mm 1 mps 624 mmHg 57%
    09:00 +21°C° 0 mm 1 mps 625 mmHg 49%
    10:00 +24°C° 0 mm 2 mps 626 mmHg 41%
    11:00 +25°C° 0 mm 2 mps 626 mmHg 37%
    12:00 +27°C° 0 mm 1 mps 626 mmHg 33%
    13:00 +28°C° 0 mm 1 mps 626 mmHg 30%
    14:00 +28°C° 0 mm 1 mps 625 mmHg 30%
    15:00 +27°C° 0 mm 1 mps 624 mmHg 31%
    16:00 +26°C° 0 mm 1 mps 624 mmHg 32%
    17:00 +24°C° 0 mm 1 mps 624 mmHg 37%
    18:00 +21°C° 0 mm 1 mps 623 mmHg 42%
    19:00 +19°C° 0 mm 1 mps 623 mmHg 47%
    20:00 +18°C° 0 mm 1 mps 623 mmHg 47%
    21:00 +18°C° 0 mm 1 mps 623 mmHg 47%
    22:00 +18°C° 0 mm 1 mps 623 mmHg 47%
    23:00 +16°C° 0 mm 1 mps 623 mmHg 48%

    31 May, Thursday

    Time Temperature Precipitation Wind Pressure Humidity
    00:00 +16°C° 0 mm 1 mps 623 mmHg 50%
    01:00 +15°C° 0 mm 1 mps 623 mmHg 51%
    02:00 +15°C° 0 mm 1 mps 623 mmHg 54%
    03:00 +14°C° 0 mm 1 mps 622 mmHg 56%
    04:00 +13°C° 0 mm 1 mps 622 mmHg 58%
    05:00 +14°C° 0 mm 1 mps 623 mmHg 60%
    06:00 +14°C° 0 mm 1 mps 623 mmHg 61%
    07:00 +14°C° 0 mm 1 mps 623 mmHg 62%
    08:00 +17°C° 0 mm 2 mps 624 mmHg 54%
    09:00 +20°C° 0 mm 2 mps 625 mmHg 45%
    10:00 +25°C° 0 mm 3 mps 626 mmHg 37%
    11:00 +26°C° 0 mm 3 mps 626 mmHg 34%
    12:00 +27°C° 0 mm 2 mps 626 mmHg 32%
    13:00 +28°C° 0 mm 2 mps 625 mmHg 29%
    14:00 +27°C° 0 mm 2 mps 625 mmHg 30%
    15:00 +27°C° 0 mm 2 mps 624 mmHg 31%
    16:00 +27°C° 0 mm 1 mps 624 mmHg 32%
    17:00 +24°C° 0 mm 1 mps 624 mmHg 37%
    18:00 +22°C° 0 mm 1 mps 624 mmHg 42%
    19:00 +19°C° 0 mm 1 mps 623 mmHg 47%
    20:00 +19°C° 0 mm 1 mps 624 mmHg 48%
    21:00 +18°C° 0 mm 1 mps 624 mmHg 49%
    22:00 +18°C° 0 mm 1 mps 624 mmHg 50%
    23:00 +16°C° 0 mm 1 mps 624 mmHg 52%
    Show more